Zurück zum Katalog

PEGASUS DEB

AktivPO
NORAD 39323·DEBRIS·🇺🇸 United States

Gestartet May 19, 1994 von Vandenberg Space Force Base

Loading…

Nächste Überflüge (nächste 24 Stunden)

TLE

AlterndSource: Space-Track

Epoche: Sep 7, 2026, 08:47 UTC

1 39323U 94029AFJ 26250.36641993  .00003286  00000-0  39821-3 0  9995
2 39323  81.9823 267.7048 0163856  77.1835 284.7625 14.74122918753601

Verfolge PEGASUS DEB in Echtzeit mit AllMySat

Download on the App Store